Date String (YYYY-MM-DD hh:mm:ss) UTC,Instrument flags,Ambient pressure (hPa),Sample flow (lpm),Bypass flow (lpm),Sample temperature (°C),Ambient temperature (°C),ASC tube jacket temperature (°C),LED temperature (°C),Box temperature (°C),Sample RH (%),Span deviation,Mass concentration (μg/m³),Mass concentration (μg/m³),Mass concentration (μg/m³)
DateTimeUTC,F1_M11,P_M11,Q1_M11,Q2_M11,T1_M11,T2_M11,T3_M11,T4_M11,T5_M11,U1_M11,ZSPAN_M11,X0_M11,X2_M11,X1_M11
2021-11-22 23:00:00,,0829.4,4.99,0.00,30.7,26.2,00.0,39.8,31.8,07.3,0000.0,0026.55,0008.44,0006.40
2021-11-22 23:01:00,,0829.4,4.99,0.00,30.6,26.2,00.0,39.7,31.8,07.4,0000.0,0027.57,0008.49,0006.43
2021-11-22 23:02:00,,0829.3,5.01,0.00,30.5,26.6,00.0,39.6,31.8,07.4,0000.0,0028.18,0008.52,0006.45
2021-11-22 23:03:00,,0829.4,5.00,0.00,30.4,27.1,00.0,39.6,31.8,07.5,0000.0,0027.64,0008.50,0006.45
2021-11-22 23:04:00,,0829.4,5.00,0.00,30.4,27.6,00.0,39.5,31.8,07.5,0000.0,0027.79,0008.44,0006.44
2021-11-22 23:05:00,,0829.3,5.01,0.00,30.3,28.0,00.0,39.5,31.9,07.5,0000.0,0027.71,0008.41,0006.41
2021-11-22 23:06:00,,0829.3,5.00,0.00,30.3,28.4,00.0,39.5,31.9,07.5,0000.0,0029.80,0008.36,0006.41
2021-11-22 23:07:00,,0829.3,4.99,0.00,30.3,28.6,00.0,39.4,32.0,07.5,0000.0,0031.54,0008.34,0006.40
2021-11-22 23:08:00,,0829.4,5.01,0.00,30.4,28.8,00.0,39.4,32.0,07.5,0000.0,0031.33,0008.28,0006.37
2021-11-22 23:09:00,,0829.3,5.01,0.00,30.4,29.0,00.0,39.4,32.1,07.5,0000.0,0031.22,0008.28,0006.35
2021-11-22 23:10:00,,0829.3,5.00,0.00,30.4,29.2,00.0,39.4,32.1,07.5,0000.0,0031.96,0008.27,0006.34
2021-11-22 23:11:00,,0829.3,5.00,0.00,30.4,29.3,00.0,39.4,32.1,07.4,0000.0,0029.32,0008.20,0006.30
2021-11-22 23:12:00,,0829.3,5.00,0.00,30.4,29.3,00.0,39.4,32.2,07.4,0000.0,0027.52,0008.14,0006.26
2021-11-22 23:13:00,,0829.3,5.00,0.00,30.5,29.4,00.0,39.4,32.2,07.4,0000.0,0026.62,0008.05,0006.21
2021-11-22 23:14:00,,0829.4,5.00,0.00,30.5,29.5,00.0,39.4,32.2,07.3,0000.0,0026.60,0007.99,0006.18
2021-11-22 23:15:00,,0829.3,5.00,0.00,30.5,29.5,00.0,39.4,32.3,07.3,0000.0,0027.40,0007.88,0006.13
2021-11-22 23:16:00,,0829.3,4.99,0.00,30.5,29.6,00.0,39.5,32.3,07.2,0000.0,0026.49,0007.81,0006.09
2021-11-22 23:17:00,,0829.4,5.01,0.00,30.6,29.6,00.0,39.5,32.4,07.2,0000.0,0024.58,0007.74,0006.03
2021-11-22 23:18:00,,0829.3,4.99,0.00,30.6,29.6,00.0,39.5,32.4,07.2,0000.0,0022.31,0007.67,0005.97
2021-11-22 23:19:00,,0829.4,5.01,0.00,30.6,29.7,00.0,39.5,32.4,07.2,0000.0,0021.81,0007.67,0005.93
2021-11-22 23:20:00,,0829.4,4.99,0.00,30.6,29.7,00.0,39.5,32.4,07.2,0000.0,0021.57,0007.61,0005.90
2021-11-22 23:21:00,,0829.3,5.00,0.00,30.6,29.8,00.0,39.5,32.4,07.2,0000.0,0021.75,0007.53,0005.86
2021-11-22 23:22:00,,0829.2,5.01,0.00,30.6,29.8,00.0,39.5,32.4,07.2,0000.0,0023.68,0007.56,0005.83
2021-11-22 23:23:00,,0829.3,4.99,0.00,30.6,29.8,00.0,39.6,32.4,07.2,0000.0,0024.14,0007.59,0005.81
2021-11-22 23:24:00,,0829.2,4.99,0.00,30.7,29.8,00.0,39.6,32.4,07.2,0000.0,0024.35,0007.60,0005.80
2021-11-22 23:25:00,,0829.3,4.99,0.00,30.7,29.8,00.0,39.6,32.4,07.2,0000.0,0024.97,0007.56,0005.79
2021-11-22 23:26:00,,0829.2,5.01,0.00,30.7,29.9,00.0,39.6,32.4,07.2,0000.0,0023.20,0007.56,0005.80
2021-11-22 23:27:00,,0829.3,5.01,0.00,30.7,29.9,00.0,39.6,32.5,07.2,0000.0,0023.28,0007.59,0005.82
2021-11-22 23:28:00,,0829.3,4.99,0.00,30.7,29.9,00.0,39.6,32.4,07.3,0000.0,0023.89,0007.57,0005.85
2021-11-22 23:29:00,,0829.2,4.98,0.00,30.7,29.9,00.0,39.6,32.4,07.3,0000.0,0023.95,0007.60,0005.90
2021-11-22 23:30:00,,0829.2,5.01,0.00,30.7,29.9,00.0,39.6,32.4,07.3,0000.0,0023.56,0007.65,0005.95
2021-11-22 23:31:00,,0829.2,5.00,0.00,30.7,29.9,00.0,39.6,32.5,07.3,0000.0,0023.62,0007.71,0005.99
2021-11-22 23:32:00,,0829.2,5.00,0.00,30.7,29.9,00.0,39.7,32.5,07.3,0000.0,0022.85,0007.75,0006.06
2021-11-22 23:33:00,,0829.2,4.97,0.00,30.7,29.9,00.0,39.7,32.5,07.2,0000.0,0021.81,0007.76,0006.12
2021-11-22 23:34:00,,0829.3,5.01,0.00,30.7,29.9,00.0,39.7,32.5,07.3,0000.2,0021.48,0007.84,0006.20
2021-11-22 23:35:00,,0829.3,5.00,0.00,30.7,29.9,00.0,39.7,32.5,07.2,0002.2,0021.82,0007.97,0006.33
2021-11-22 23:36:00,,0829.2,5.00,0.00,30.7,29.9,00.0,39.7,32.4,07.2,0002.5,0020.48,0008.12,0006.45
2021-11-22 23:37:00,,0829.3,4.99,0.00,30.7,29.9,00.0,39.7,32.4,07.3,0002.5,0020.30,0008.24,0006.59
2021-11-22 23:38:00,,0829.3,4.99,0.00,30.7,29.9,00.0,39.7,32.5,07.3,0003.2,0020.11,0008.33,0006.71
2021-11-22 23:39:00,,0829.2,4.99,0.00,30.7,29.9,00.0,39.7,32.4,07.3,0003.2,0019.38,0008.45,0006.84
2021-11-22 23:40:00,,0829.3,5.01,0.00,30.7,29.9,00.0,39.7,32.4,07.2,0003.5,0019.49,0008.61,0006.96
2021-11-22 23:41:00,,0829.2,5.00,0.00,30.7,29.8,00.0,39.7,32.4,07.2,0003.3,0020.20,0008.71,0007.08
2021-11-22 23:42:00,,0829.3,5.00,0.00,30.7,28.1,00.0,39.7,32.0,07.2,0003.1,0020.24,0008.79,0007.15
2021-11-22 23:43:00,,0829.2,4.99,0.00,30.5,26.7,00.0,39.6,31.8,07.2,0003.4,0019.95,0008.88,0007.22
2021-11-22 23:44:00,,0829.3,5.00,0.00,30.4,26.6,00.0,39.6,31.7,07.3,0004.1,0019.69,0008.99,0007.29
2021-11-22 23:45:00,,0829.3,5.01,0.00,30.3,27.0,00.0,39.5,31.7,07.3,0004.0,0019.96,0008.96,0007.31
2021-11-22 23:46:00,,0829.3,4.99,0.00,30.2,27.5,00.0,39.5,31.7,07.3,0004.4,0020.15,0008.82,0007.28
2021-11-22 23:47:00,,0829.2,5.01,0.00,30.2,27.8,00.0,39.4,31.8,07.3,0004.6,0021.07,0008.77,0007.23
2021-11-22 23:48:00,,0829.3,4.99,0.00,30.2,28.2,00.0,39.4,31.7,07.3,0005.0,0022.07,0008.79,0007.19
2021-11-22 23:49:00,,0829.3,5.00,0.00,30.2,28.4,00.0,39.3,31.8,07.3,0005.2,0022.47,0008.77,0007.15
2021-11-22 23:50:00,,0829.2,4.99,0.00,30.2,28.6,00.0,39.3,31.8,07.2,0005.5,0022.61,0008.71,0007.09
2021-11-22 23:51:00,,0829.2,5.01,0.00,30.2,28.7,00.0,39.3,31.9,07.3,0005.3,0022.77,0008.62,0007.05
2021-11-22 23:52:00,,0829.3,5.00,0.00,30.2,28.8,00.0,39.3,31.9,07.2,0005.5,0023.72,0008.51,0006.98
2021-11-22 23:53:00,,0829.3,5.00,0.00,30.2,28.9,00.0,39.3,31.9,07.2,0005.7,0024.05,0008.39,0006.93
2021-11-22 23:54:00,,0829.3,5.00,0.00,30.2,29.0,00.0,39.3,31.9,07.3,0005.6,0024.60,0008.36,0006.89
2021-11-22 23:55:00,,0829.2,5.01,0.00,30.2,29.1,00.0,39.3,31.9,07.3,0005.3,0025.17,0008.25,0006.83
2021-11-22 23:56:00,,0829.3,5.00,0.00,30.3,29.1,00.0,39.3,31.9,07.3,0004.9,0025.46,0008.23,0006.81
2021-11-22 23:57:00,,0829.3,5.00,0.00,30.3,29.2,00.0,39.3,32.0,07.3,0005.0,0024.48,0008.30,0006.85
2021-11-22 23:58:00,,0829.2,5.00,0.00,30.3,29.2,00.0,39.3,32.0,07.2,0004.8,0023.65,0008.30,0006.87
2021-11-22 23:59:00,,0829.2,5.00,0.00,30.3,29.2,00.0,39.3,32.0,07.2,0004.5,0023.61,0008.31,0006.89
